Hauptseite
METAR-TAF:

METAR-TAF

Flughäfen :

Turin, Italien

Flughafen Turin

Breite: 45-13N, Länge: 007-39E, Höhe: 301 m

Beobachtung

Neuester Wetterbericht von vor 49 Minuten, um 22:20 UTC
Wind 2 kt aus unterschiedlichen Richtungen
Temperatur 16°C
Luftfeuchtigkeit 59%
Luftdruck 1018 hPa
Sichtweite 10 km oder mehr
keine Wolken unter 1500 m und keine Kumulonimbus oder Gewitterwolken

METAR: LIMF 212220Z VRB02KT CAVOK 16/08 Q1018

Zeit: 01:09 (23:09 UTC)

Prognose

Neuester Wetterbericht von vor 6 Stunden und 9 Minuten, um 17:00 UTC
Gültige Prognose vom 21 um 18 UTC bis 22 um 18 UTC
Wind 5 kt aus unterschiedlichen Richtungen
Sichtweite 10 km oder mehr
keine Wolken unter 1500 m und keine Kumulonimbus oder Gewitterwolken

TAF: LIMF 211700Z 2118/2218 VRB05KT CAVOK

Wetterbeobachtungen und Prognosen von mehr als 4000 Flughäfen (METAR und TAF Bericht).

Die verfügbaren Stationen werden durch gelbe und rote Markierungen auf der Karte dargestellt.

Führen Sie die Maus auf sie, um den Namen der Station zu sehen.

Darauf klicken, um die Beobachtung von Wetterbeobachtungen und Prognosen zu sehen.

Um die Karte zu ändern : klicken Sie auf den grünen Tasten mit einem schwarzen Kreuz Zum Vergrößern, auf den grünen Button mit einem Gedankenstrich zu verkleinern, oder auf die grünen Pfeile für benachbarte Karten.


METAR-TAF: